This is the latest recevied weather packets stored in our database for station/object YS1AHL-24. If no packets are shown the sender has not sent any weather packets the latest 1 day(s).
| Time | Temp. | Humidity | Pressure | Rain* | Wind** | Luminosity | Snow |
|---|---|---|---|---|---|---|---|
| 1778017491 | 13.33° C | 61% | 1002 hPa | 0 mm | - | - | - |
| 1778015689 | 17.78° C | 57% | 1001 hPa | 0 mm | - | - | - |
| 1778014548 | 20.56° C | 59% | 1002 hPa | 0 mm | - | - | - |
| 1778012746 | 19.44° C | 61% | 1000 hPa | 0 mm | - | - | - |
| 1778012145 | 19.44° C | 63% | 1000 hPa | 0 mm | - | - | - |
| 1778012085 | 19.44° C | 63% | 1000 hPa | 0 mm | - | - | - |
| 1778010283 | 18.89° C | 67% | 1000 hPa | 0 mm | - | - | - |
| 1778009142 | 18.89° C | 65% | 1000 hPa | 0 mm | - | - | - |
| 1778009082 | 18.89° C | 65% | 1000 hPa | 0 mm | - | - | - |
| 1778006679 | 20° C | 59% | 1000 hPa | 0 mm | - | - | - |
| 1778005478 | 19.44° C | 61% | 1000 hPa | 0 mm | - | - | - |
| 1778004337 | 18.89° C | 63% | 1000 hPa | 0 mm | - | - | - |
| 1778004277 | 18.89° C | 63% | 1000 hPa | 0 mm | - | - | - |
| 1778002535 | 18.33° C | 66% | 1000 hPa | 0 mm | - | - | - |
| 1778001334 | 18.33° C | 64% | 1000 hPa | 0 mm | - | - | - |
| 1778000673 | 18.33° C | 60% | 1000 hPa | 0 mm | - | - | - |
| 1777997730 | 17.78° C | 60% | 1000 hPa | 0 mm | - | - | - |
| 1777995328 | 18.33° C | 60% | 1001 hPa | 0 mm | - | - | - |
| 1777994727 | 18.33° C | 61% | 1000 hPa | 0 mm | - | - | - |
| 1777994667 | 18.33° C | 61% | 1000 hPa | 0 mm | - | - | - |
* Rain latest hour (hover to see other rain measurements)
** Current wind speed in m/s (hover to see current wind gust speed)